Regional Weather Roundup
Issued by NWS Jackson, KY

Home | Current Version | Previous Version | Text Only | Print | Product List | Glossary Off
Versions: 1 2 3 4 5 6 7 8 9 10 11 12 13 14 15 16 17 18 19 20 21 22 23 24 25 26 27 28 29 30 31 32 33 34 35 36 37 38 39 40 41 42 43 44 45 46 47 48 49 50

000
ASUS43 KJKL 290311
RWRJKL

EAST KENTUCKY HOURLY WEATHER ROUNDUP
NATIONAL WEATHER SERVICE JACKSON KY
1100 PM EDT THU AUG 28 2014

NOTE: "FAIR" INDICATES FEW OR NO CLOUDS BELOW 12,000 FEET WITH
NO SIGNIFICANT WEATHER AND/OR OBSTRUCTIONS TO VISIBILITY.

* THESE REPORTS ARE NOT UNDER NWS QUALITY CONTROL AND MAY NOT
  REPORT WEATHER SUCH AS PRECIPITATION AND FOG.

KYZ079-080-083-085-087-088-110-112-115-119-120-290400
...EASTERN KENTUCKY...

CITY           SKY/WX    TMP DP  RH WIND       PRES   REMARKS
JACKSON        CLEAR     73  65  75 CALM      30.11R
LONDON         CLEAR     75  69  81 NE3       30.08S
SOMERSET*      CLEAR     77  68  73 NE5       30.07S
MONTICELLO*    PTCLDY    74  73  96 CALM      30.08R
MIDDLESBORO*   CLEAR     73  70  91 CALM      30.08S
HARLAN APT*    CLEAR     70  70 100 MISG      30.10S
HAZARD APT*    CLEAR     72  72 100 CALM      30.10
BLACK MTN*       N/A     66  64  94 S2          N/A
BIG SANDY*     CLEAR     70  66  87 NE6       30.11S
MOREHEAD APT*  PTCLDY    73  63  68 E5        30.12R
$$

KYZ035-036-041-042-044-050-067-078-099-290400
...CENTRAL KENTUCKY...

CITY           SKY/WX    TMP DP  RH WIND       PRES   REMARKS
MT STERLING*   CLEAR     72  68  88 NE5       30.10S
FLEMING/MASON* CLEAR     70  63  78 E3        30.11R
DANVILLE*      CLEAR     70  66  88 CALM      30.08S
RICHMOND*      CLEAR     72  68  88 CALM      30.08R
LEXINGTON      CLEAR     76  68  76 E7        30.07S
FRANKFORT      CLEAR     76  68  76 E6        30.06S
$$

KYZ091>093-OHZ055-061-077-WVZ005-015-034-035-042-290400
...SOUTHERN OHIO/WEST VIRGINIA...

CITY           SKY/WX    TMP DP  RH WIND       PRES   REMARKS
COVINGTON      PTCLDY    74  60  61 E10       30.09R
COLUMBUS       CLEAR     68  57  68 E3        30.12S
DAYTON         CLEAR     70  60  70 E8        30.12R
WILMINGTON     CLEAR     66  60  81 E6        30.11S
HUNTINGTON     CLEAR     67  64  90 E3        30.10R
CHARLESTON     PTCLDY    67  66  97 CALM      30.11R
PINEVILLE*     CLEAR     67  67 100 MISG      30.19R FOG
BECKLEY        CLEAR     64  59  83 CALM      30.18R
BLUEFIELD      CLEAR     70  62  76 CALM      30.19S
$$

VAZ002-007-008-TNZ017-027-036-066-071-290400
...SOUTHWEST VIRGINIA/EAST TENNESSEE...

CITY           SKY/WX    TMP DP  RH WIND       PRES   REMARKS
WISE*          CLEAR     70  68  94 NE5       30.18S
JONESVILLE*      N/A     72  72 100 CALM      30.10S
ABINGDON*      CLEAR     72  67  86 CALM      30.13S
BRISTOL        PTCLDY    73  67  81 CALM      30.09S
KNOXVILLE      PTCLDY    78  70  76 CALM      30.03S
OAK RIDGE      CLEAR     76  72  87 CALM      30.05S
CROSSVILLE     MOCLDY    72  68  87 CALM      30.10S
NASHVILLE      MOCLDY    79  71  76 N5        30.01S
$$

...KEY TO REMARKS...
VSB - VISIBILITY IN MILES
WCI - WIND CHILL INDEX
HX  - HEAT INDEX

$$



USA.gov is the U.S. government's official web portal to all federal, state and local government web resources and services.